GW0290 Weather Reports


time (UTC)temp
C
wind
direction
speed
KPH
gust
KPH
rain 1hr
cm
rain 24hr
cm
rain mn
cm
humidity
%
barometer
mb
20260510184010 28 194 1.6 11.3 0.00 0.15 0.08 40 1015.2
20260510183512 29 70 0.0 9.7 0.00 0.15 0.08 41 1015.2
20260510183032 28 340 0.0 9.7 0.00 0.15 0.08 40 1015.4
20260510182512 29 146 0.0 8.0 0.00 0.15 0.08 41 1015.3
20260510182013 29 103 1.6 8.0 0.00 0.15 0.08 42 1015.4
20260510181534 28 0 0.0 6.4 0.00 0.15 0.08 45 1015.4
20260510181016 27 0 1.6 8.0 0.00 0.15 0.08 45 1015.4
20260510180511 27 0 0.0 8.0 0.00 0.15 0.08 45 1015.4
20260510180031 28 175 0.0 8.0 0.00 0.15 0.08 44 1015.3
20260510175510 28 130 0.0 6.4 0.00 0.15 0.08 46 1015.4
20260510175015 28 221 1.6 6.4 0.00 0.15 0.08 45 1015.5
20260510174530 28 126 0.0 8.0 0.00 0.15 0.08 46 1015.5
20260510174012 28 0 0.0 8.0 0.00 0.15 0.08 47 1015.4
20260510173511 28 158 0.0 8.0 0.00 0.15 0.08 46 1015.4
20260510173031 28 172 0.0 9.7 0.00 0.15 0.08 49 1015.5
20260510172510 27 136 1.6 9.7 0.00 0.15 0.08 46 1015.6
20260510172014 27 255 1.6 6.4 0.03 0.15 0.08 48 1015.6
20260510171531 27 165 1.6 8.0 0.03 0.15 0.08 50 1015.6
20260510171011 27 178 1.6 8.0 0.03 0.15 0.08 47 1015.6
20260510170509 27 0 0.0 6.4 0.03 0.15 0.08 48 1015.7
20260510170031 26 0 0.0 6.4 0.03 0.15 0.08 49 1015.7
20260510165510 27 153 1.6 9.7 0.03 0.15 0.08 48 1015.7
20260510165011 27 166 0.0 9.7 0.03 0.15 0.08 48 1015.8
20260510164539 27 0 0.0 4.8 0.03 0.15 0.08 49 1015.8
20260510164014 26 0 1.6 4.8 0.03 0.15 0.08 49 1015.8
20260510163513 26 0 1.6 4.8 0.03 0.15 0.08 50 1015.9
20260510163030 26 0 1.6 6.4 0.03 0.15 0.08 49 1015.8
20260510162510 26 57 1.6 6.4 0.03 0.15 0.08 51 1015.9
20260510162013 26 137 0.0 4.8 0.00 0.13 0.05 48 1016.0
20260510161531 26 0 0.0 6.4 0.00 0.13 0.05 53 1016.0
20260510161013 26 255 1.6 8.0 0.00 0.13 0.05 52 1016.0
20260510160510 26 82 3.2 8.0 0.00 0.13 0.05 52 1016.0
20260510160032 26 67 0.0 6.4 0.00 0.13 0.05 54 1016.0
20260510155510 26 68 1.6 6.4 0.00 0.15 0.05 53 1016.1
20260510155011 26 0 1.6 6.4 0.00 0.15 0.05 53 1016.2
20260510154544 26 281 0.0 6.4 0.00 0.15 0.05 56 1016.3
20260510154014 25 0 0.0 6.4 0.00 0.15 0.05 56 1016.4
20260510153515 26 67 1.6 6.4 0.00 0.15 0.05 55 1016.6
20260510153028 25 0 1.6 4.8 0.00 0.15 0.05 55 1016.6
20260510152509 25 169 1.6 4.8 0.00 0.15 0.05 57 1016.5
20260510152014 25 0 0.0 4.8 0.00 0.15 0.05 56 1016.5
20260510151530 26 0 0.0 4.8 0.00 0.15 0.05 56 1016.4
20260510151011 26 261 1.6 4.8 0.00 0.15 0.05 57 1016.2
20260510150514 25 296 0.0 4.8 0.00 0.15 0.05 56 1016.3
20260510150032 25 0 0.0 4.8 0.00 0.15 0.05 56 1016.3
20260510145512 25 30 0.0 4.8 0.00 0.15 0.05 61 1016.2
20260510145014 25 0 0.0 6.4 0.00 0.15 0.05 60 1016.2
20260510144540 24 0 0.0 6.4 0.00 0.15 0.05 62 1016.2
20260510144013 24 110 1.6 6.4 0.00 0.15 0.05 62 1016.2
20260510143513 24 43 1.6 6.4 0.00 0.15 0.05 61 1016.2
20260510143030 24 273 0.0 4.8 0.00 0.15 0.05 63 1016.2
20260510142509 24 0 0.0 4.8 0.00 0.15 0.05 63 1016.2
20260510142014 23 289 1.6 4.8 0.00 0.15 0.05 63 1016.1
20260510141530 23 0 0.0 4.8 0.00 0.15 0.05 65 1016.1
20260510141010 23 0 0.0 4.8 0.00 0.15 0.05 66 1016.2
20260510140515 23 0 1.6 4.8 0.00 0.15 0.05 67 1016.2
20260510140031 23 0 0.0 3.2 0.00 0.15 0.05 73 1016.1
20260510135509 23 0 0.0 0.0 0.00 0.15 0.05 73 1016.1
20260510135012 23 0 0.0 0.0 0.00 0.15 0.05 74 1016.2
20260510134530 22 0 0.0 0.0 0.00 0.15 0.05 76 1016.1
20260510134010 22 0 0.0 0.0 0.00 0.15 0.05 76 1016.1
20260510133512 22 0 0.0 0.0 0.00 0.15 0.05 78 1016.1
20260510133030 22 0 0.0 0.0 0.03 0.15 0.05 79 1016.2
20260510132516 22 0 0.0 0.0 0.03 0.15 0.05 78 1016.0
20260510132016 22 0 0.0 0.0 0.03 0.15 0.05 81 1016.0
20260510131542 22 0 0.0 0.0 0.03 0.15 0.05 85 1015.9
20260510131012 21 0 0.0 0.0 0.03 0.15 0.05 89 1015.9
20260510130514 21 0 0.0 0.0 0.03 0.15 0.05 90 1015.8
20260510130030 20 0 0.0 0.0 0.03 0.15 0.05 92 1015.6
20260510125509 20 0 0.0 0.0 0.03 0.18 0.05 93 1015.6
20260510125012 19 0 0.0 0.0 0.03 0.18 0.05 94 1015.6
20260510124530 19 0 0.0 0.0 0.03 0.18 0.05 95 1015.6
20260510124009 18 0 0.0 0.0 0.03 0.18 0.05 96 1015.6
20260510123514 18 0 0.0 0.0 0.03 0.18 0.05 96 1015.6
20260510123028 18 0 0.0 0.0 0.00 0.15 0.03 96 1015.6
20260510122515 17 0 0.0 0.0 0.00 0.15 0.03 96 1015.6
20260510122016 17 0 0.0 0.0 0.00 0.15 0.03 96 1015.5
20260510121536 17 0 0.0 0.0 0.00 0.15 0.03 96 1015.4
20260510121015 17 0 0.0 0.0 0.00 0.15 0.03 96 1015.4
20260510120512 17 0 0.0 0.0 0.00 0.15 0.03 96 1015.3
20260510120035 17 0 0.0 0.0 0.00 0.15 0.03 96 1015.4
20260510115510 16 0 0.0 1.6 0.00 0.15 0.03 96 1015.3
20260510115015 16 0 0.0 1.6 0.00 0.15 0.03 96 1015.3
20260510114536 16 0 0.0 1.6 0.00 0.15 0.03 96 1015.3
20260510114017 15 0 0.0 0.0 0.00 0.15 0.03 96 1015.2
20260510113514 15 0 0.0 0.0 0.00 0.15 0.03 95 1015.1
20260510113031 15 0 0.0 0.0 0.00 0.15 0.03 95 1015.0
20260510112515 15 0 0.0 0.0 0.00 0.15 0.03 95 1014.9
20260510112008 15 0 0.0 0.0 0.00 0.15 0.03 95 1014.8
20260510111531 15 0 0.0 0.0 0.00 0.15 0.03 95 1014.9
20260510111017 15 0 0.0 0.0 0.00 0.15 0.03 95 1014.7
20260510110512 15 0 0.0 0.0 0.00 0.15 0.03 94 1014.7
20260510110030 15 0 0.0 0.0 0.00 0.15 0.03 94 1014.5
20260510105510 15 0 0.0 0.0 0.00 0.15 0.03 94 1014.6
20260510105018 15 0 0.0 0.0 0.00 0.15 0.03 94 1014.3
20260510104532 15 0 0.0 0.0 0.00 0.15 0.03 94 1014.1
20260510104011 15 0 0.0 0.0 0.00 0.15 0.03 94 1014.1
20260510103513 15 0 0.0 0.0 0.00 0.15 0.03 94 1014.1
20260510103029 15 0 0.0 0.0 0.00 0.15 0.03 94 1014.1
20260510102512 15 0 0.0 0.0 0.00 0.15 0.03 94 1014.0
20260510102018 15 0 0.0 0.0 0.00 0.15 0.03 94 1013.9
20260510101532 15 0 0.0 0.0 0.00 0.15 0.03 94 1013.9
20260510101014 15 0 0.0 0.0 0.00 0.15 0.03 94 1013.8
20260510100512 15 0 0.0 0.0 0.00 0.15 0.03 94 1013.8
20260510100031 15 0 0.0 0.0 0.00 0.15 0.03 94 1013.6
20260510095513 15 0 0.0 0.0 0.00 0.15 0.03 94 1013.7
20260510095013 15 0 0.0 1.6 0.00 0.15 0.03 94 1013.7
20260510094535 15 0 0.0 1.6 0.00 0.15 0.03 94 1013.7
20260510094010 15 0 0.0 1.6 0.00 0.15 0.03 94 1013.6
20260510093515 15 0 0.0 1.6 0.00 0.15 0.03 94 1013.3
20260510093032 15 0 0.0 4.8 0.00 0.15 0.03 94 1013.3
20260510092511 15 0 0.0 4.8 0.00 0.15 0.03 94 1013.3
20260510092014 15 183 0.0 4.8 0.00 0.15 0.03 94 1013.2
20260510091533 15 0 0.0 0.0 0.00 0.15 0.03 94 1012.9
20260510091015 15 0 0.0 0.0 0.00 0.15 0.03 94 1012.9
20260510090514 15 0 0.0 0.0 0.00 0.15 0.03 94 1012.9
20260510090030 15 0 0.0 0.0 0.00 0.15 0.03 94 1012.8
20260510085513 15 0 0.0 0.0 0.03 0.18 0.03 94 1012.8
20260510085011 15 0 0.0 0.0 0.03 0.18 0.03 94 1012.8
20260510084535 15 0 0.0 0.0 0.03 0.18 0.03 94 1012.7
20260510084010 15 0 0.0 0.0 0.03 0.18 0.03 94 1012.7
20260510083516 15 0 0.0 0.0 0.03 0.18 0.03 94 1012.6
20260510083030 15 0 0.0 0.0 0.03 0.18 0.03 94 1012.8
20260510082509 15 0 0.0 0.0 0.03 0.18 0.03 94 1012.8
20260510082014 15 0 0.0 0.0 0.03 0.18 0.03 94 1012.7
20260510081532 15 0 0.0 0.0 0.03 0.18 0.03 94 1012.6
20260510081012 15 0 0.0 0.0 0.03 0.18 0.03 93 1012.5
20260510080514 15 0 0.0 0.0 0.03 0.18 0.03 93 1012.6
20260510080034 15 0 0.0 0.0 0.03 0.18 0.03 93 1012.7
20260510075510 15 0 0.0 0.0 0.00 0.15 0.00 93 1012.6
20260510075011 15 0 0.0 0.0 0.00 0.15 0.00 93 1012.7
20260510074536 15 0 0.0 0.0 0.00 0.15 0.00 93 1012.6
20260510074011 15 0 0.0 0.0 0.00 0.15 0.00 93 1012.5
20260510073511 15 0 0.0 0.0 0.00 0.15 0.00 93 1012.6
20260510073030 15 0 0.0 0.0 0.00 0.15 0.00 93 1012.6
20260510072510 15 0 0.0 0.0 0.00 0.15 0.00 93 1012.5
20260510072015 15 0 0.0 0.0 0.00 0.15 0.00 93 1012.5
20260510071531 15 0 0.0 0.0 0.00 0.15 0.00 93 1012.5
20260510071012 15 0 0.0 0.0 0.00 0.15 0.00 93 1012.4
20260510070512 15 0 0.0 0.0 0.00 0.15 0.00 93 1012.4
20260510070029 15 0 0.0 0.0 0.00 0.15 0.00 93 1012.5
20260510065511 15 0 0.0 0.0 0.00 0.15 0.00 93 1012.6
20260510065011 15 0 0.0 0.0 0.00 0.15 0.00 93 1012.5
20260510064545 15 0 0.0 0.0 0.00 0.15 0.00 93 1012.5
20260510064012 15 0 0.0 0.0 0.00 0.15 0.00 93 1012.6
20260510063511 15 0 0.0 0.0 0.00 0.15 0.00 92 1012.5
20260510063032 15 0 0.0 0.0 0.00 0.15 0.00 93 1012.5
20260510062510 15 0 0.0 0.0 0.00 0.15 0.00 92 1012.4
20260510062014 15 0 0.0 0.0 0.00 0.15 0.00 92 1012.4
20260510061533 15 0 0.0 0.0 0.00 0.15 0.00 92 1012.4
20260510061010 15 0 0.0 0.0 0.00 0.15 0.00 92 1012.4
20260510060515 15 0 0.0 0.0 0.00 0.15 0.00 92 1012.5
20260510060029 15 0 0.0 0.0 0.00 0.15 0.00 92 1012.6
20260510055512 15 0 0.0 0.0 0.00 0.15 0.00 92 1012.6
20260510055012 15 0 0.0 0.0 0.00 0.15 0.00 92 1012.7
20260510054532 15 0 0.0 0.0 0.00 0.15 0.00 92 1012.8
20260510054013 15 0 0.0 0.0 0.00 0.15 0.00 92 1012.8
20260510053515 15 0 0.0 0.0 0.00 0.15 0.00 92 1012.8
20260510053042 15 0 0.0 0.0 0.00 0.15 0.00 92 1012.8
20260510052510 16 0 0.0 0.0 0.00 0.15 0.00 92 1012.9
20260510052016 16 0 0.0 0.0 0.00 0.15 0.00 92 1012.9
20260510051545 16 0 0.0 0.0 0.00 0.15 0.00 92 1013.0
20260510051017 16 0 0.0 0.0 0.00 0.15 0.00 91 1013.1
20260510050512 16 0 0.0 0.0 0.00 0.15 0.00 92 1013.0
20260510050032 16 0 0.0 0.0 0.00 0.15 0.00 91 1012.9
20260510045512 16 0 0.0 0.0 0.00 0.18 0.00 91 1013.0
20260510045010 16 0 0.0 0.0 0.00 0.18 0.00 91 1013.1
20260510044530 16 0 0.0 0.0 0.00 0.18 0.00 91 1013.2
20260510044012 16 0 0.0 0.0 0.00 0.18 0.00 91 1013.1
20260510043513 16 0 0.0 0.0 0.00 0.18 0.00 91 1013.1
20260510043032 16 0 0.0 0.0 0.00 0.18 0.00 91 1013.0
20260510042515 16 0 0.0 0.0 0.00 0.18 0.00 91 1013.0
20260510042012 16 0 0.0 0.0 0.00 0.18 0.00 91 1013.0
20260510041534 16 0 0.0 0.0 0.00 0.18 0.00 90 1013.0
20260510041017 16 0 0.0 0.0 0.00 0.18 0.00 90 1012.9
20260510040510 16 0 0.0 0.0 0.00 0.18 0.00 90 1013.0
20260510040036 16 0 0.0 0.0 0.00 0.18 0.00 90 1013.1
20260510035509 16 0 0.0 0.0 0.00 0.18 0.18 90 1013.0
20260510035013 16 0 0.0 0.0 0.00 0.18 0.18 89 1012.8
20260510034532 16 0 0.0 0.0 0.00 0.18 0.18 89 1012.8
20260510034010 16 0 0.0 0.0 0.00 0.18 0.18 89 1012.8
20260510033513 16 0 0.0 0.0 0.00 0.18 0.18 89 1012.8
20260510033032 16 0 0.0 0.0 0.00 0.18 0.18 89 1012.8
20260510032512 16 0 0.0 0.0 0.03 0.18 0.18 88 1012.9
20260510032017 16 0 0.0 0.0 0.03 0.18 0.18 88 1012.8
20260510031533 16 0 0.0 0.0 0.03 0.18 0.18 88 1012.8
20260510031011 16 0 0.0 0.0 0.03 0.18 0.18 88 1012.8
20260510030518 16 0 0.0 0.0 0.03 0.18 0.18 88 1012.8
20260510030031 16 0 0.0 0.0 0.03 0.18 0.18 87 1012.7
20260510025510 16 0 0.0 0.0 0.03 0.18 0.18 87 1012.7
20260510025015 16 0 0.0 0.0 0.03 0.18 0.18 87 1012.6
20260510024532 17 0 0.0 0.0 0.03 0.18 0.18 87 1012.7
20260510024013 17 0 0.0 0.0 0.03 0.18 0.18 87 1012.7
20260510023514 17 0 0.0 0.0 0.03 0.18 0.18 87 1012.7
20260510023032 17 0 0.0 0.0 0.03 0.18 0.18 86 1012.6
20260510022510 17 0 0.0 0.0 0.00 0.15 0.15 86 1012.6
20260510022017 17 0 0.0 0.0 0.00 0.15 0.15 86 1012.7
20260510021534 17 0 0.0 0.0 0.00 0.15 0.15 86 1012.6
20260510021009 17 0 0.0 0.0 0.00 0.15 0.15 86 1012.6
20260510020515 17 0 0.0 0.0 0.00 0.15 0.15 86 1012.5
20260510020032 18 0 0.0 0.0 0.00 0.15 0.15 86 1012.5
20260510015511 18 0 0.0 0.0 0.00 0.18 0.15 85 1012.6
20260510015011 18 0 0.0 0.0 0.00 0.18 0.15 85 1012.7
20260510014532 18 0 0.0 1.6 0.00 0.18 0.15 85 1012.7
20260510014010 18 0 0.0 1.6 0.00 0.18 0.15 85 1012.5
20260510013514 18 0 0.0 0.0 0.00 0.18 0.15 84 1012.4
20260510013030 18 0 0.0 0.0 0.00 0.18 0.15 84 1012.3
20260510012509 18 0 0.0 0.0 0.00 0.18 0.15 84 1012.2
20260510012015 18 0 0.0 0.0 0.00 0.18 0.15 84 1012.1
20260510011531 19 0 0.0 0.0 0.00 0.18 0.15 83 1012.0
20260510011010 19 0 0.0 0.0 0.00 0.18 0.15 83 1011.9
20260510010510 19 0 0.0 0.0 0.00 0.18 0.15 83 1011.8
20260510010030 19 0 0.0 0.0 0.00 0.18 0.15 82 1011.8
20260510005510 20 0 0.0 0.0 0.00 0.18 0.15 82 1011.8
20260510005020 20 0 0.0 0.0 0.00 0.18 0.15 82 1011.7
20260510004532 20 0 0.0 0.0 0.00 0.18 0.15 82 1011.6
20260510004011 20 0 0.0 0.0 0.00 0.18 0.15 81 1011.6
20260510003514 20 0 0.0 0.0 0.00 0.18 0.15 81 1011.5
20260510003031 20 0 0.0 0.0 0.00 0.18 0.15 81 1011.5
20260510002513 20 0 0.0 0.0 0.00 0.18 0.15 81 1011.5
20260510002010 20 0 0.0 0.0 0.00 0.18 0.15 81 1011.6
20260510001530 21 0 0.0 0.0 0.00 0.18 0.15 80 1011.7
20260510001011 21 0 0.0 0.0 0.00 0.18 0.15 80 1011.7
20260510000512 21 0 0.0 0.0 0.00 0.18 0.15 80 1011.7
20260510000029 21 0 0.0 0.0 0.00 0.18 0.15 79 1011.7
20260509235509 21 0 0.0 0.0 0.00 0.18 0.15 79 1011.6
20260509235013 21 0 0.0 0.0 0.00 0.18 0.15 79 1011.6
20260509234529 21 0 0.0 0.0 0.00 0.18 0.15 78 1011.5
20260509234011 21 0 0.0 0.0 0.00 0.18 0.15 78 1011.5
20260509233511 22 0 0.0 0.0 0.00 0.18 0.15 78 1011.5
20260509233032 22 0 0.0 0.0 0.00 0.18 0.15 77 1011.3
20260509232514 22 0 0.0 0.0 0.00 0.18 0.15 77 1011.0
20260509232013 22 0 0.0 0.0 0.00 0.18 0.15 77 1011.0
20260509231534 22 0 0.0 0.0 0.00 0.18 0.15 77 1011.1
20260509231010 22 0 0.0 0.0 0.03 0.18 0.15 76 1011.1
20260509230515 22 0 0.0 3.2 0.03 0.18 0.15 76 1010.8
20260509230030 22 0 0.0 3.2 0.03 0.18 0.15 75 1010.8
20260509225512 22 223 0.0 6.4 0.03 0.20 0.15 75 1010.8
20260509225019 22 0 0.0 6.4 0.03 0.20 0.15 75 1010.7
20260509224530 22 242 1.6 6.4 0.03 0.20 0.15 74 1010.7
20260509224010 22 0 0.0 6.4 0.03 0.20 0.15 74 1010.6
20260509223514 22 13 1.6 6.4 0.03 0.20 0.15 73 1010.8
20260509223032 23 0 0.0 1.6 0.03 0.20 0.15 74 1010.9
20260509222509 23 0 0.0 1.6 0.03 0.20 0.15 74 1010.8
20260509222011 23 190 0.0 1.6 0.03 0.20 0.15 74 1010.8
20260509221529 23 0 0.0 3.2 0.03 0.20 0.15 74 1010.9
20260509221010 23 0 0.0 3.2 0.00 0.18 0.13 73 1011.1
20260509220514 23 0 0.0 4.8 0.00 0.18 0.13 73 1011.1
20260509220040 22 0 0.0 4.8 0.00 0.18 0.13 73 1010.9
20260509215515 23 257 0.0 6.4 0.00 0.18 0.13 73 1010.9
20260509215013 23 0 0.0 6.4 0.00 0.18 0.13 73 1010.7
20260509214533 23 178 0.0 6.4 0.00 0.18 0.13 72 1011.0
20260509214015 23 0 0.0 9.7 0.00 0.18 0.13 72 1010.9
20260509213512 23 155 1.6 9.7 0.00 0.18 0.13 72 1010.7
20260509213033 23 0 1.6 8.0 0.00 0.18 0.13 72 1010.7
20260509212510 23 177 0.0 8.0 0.00 0.18 0.13 72 1010.9
20260509212013 23 312 1.6 8.0 0.00 0.18 0.13 73 1010.8
20260509211534 23 284 0.0 6.4 0.00 0.18 0.13 73 1010.8
20260509211012 23 244 1.6 11.3 0.00 0.18 0.13 72 1010.7
20260509210511 23 288 1.6 11.3 0.00 0.18 0.13 71 1010.7
20260509210031 23 171 1.6 11.3 0.00 0.18 0.13 71 1010.7
20260509205511 23 0 0.0 11.3 0.00 0.20 0.13 72 1010.6
20260509205013 23 202 1.6 8.0 0.00 0.20 0.13 73 1010.5
20260509204530 22 0 0.0 8.0 0.00 0.20 0.13 75 1010.5
20260509204014 22 203 1.6 8.0 0.00 0.20 0.13 73 1010.8
20260509203518 22 0 0.0 3.2 0.00 0.20 0.13 74 1010.7
20260509203037 22 312 0.0 11.3 0.00 0.20 0.13 73 1010.7
20260509202515 22 208 0.0 11.3 0.00 0.20 0.13 72 1010.7
20260509202011 23 169 3.2 11.3 0.00 0.20 0.13 71 1010.7
20260509201532 23 173 0.0 3.2 0.00 0.20 0.13 72 1010.9
20260509201010 23 0 0.0 1.6 0.00 0.20 0.13 72 1010.9
20260509200515 23 0 0.0 3.2 0.00 0.20 0.13 72 1010.8
20260509200036 23 0 0.0 3.2 0.00 0.20 0.13 71 1010.9
20260509195512 23 0 0.0 1.6 0.00 0.20 0.13 70 1011.0
20260509195012 23 0 0.0 3.2 0.00 0.20 0.13 71 1011.0
20260509194545 22 0 0.0 3.2 0.00 0.20 0.13 70 1011.0
20260509194010 22 0 0.0 0.0 0.00 0.20 0.13 72 1011.1
20260509193520 22 0 0.0 1.6 0.00 0.20 0.13 72 1011.0
20260509193037 22 0 0.0 1.6 0.03 0.20 0.13 71 1011.2
20260509192510 22 0 0.0 1.6 0.03 0.20 0.13 71 1011.3
20260509192011 22 0 0.0 4.8 0.03 0.20 0.13 71 1011.4
20260509191534 22 0 0.0 4.8 0.03 0.20 0.13 72 1011.4
20260509191017 22 0 0.0 8.0 0.03 0.20 0.13 71 1011.4
20260509190509 22 198 0.0 11.3 0.03 0.20 0.13 70 1011.3
20260509190032 22 182 1.6 11.3 0.03 0.20 0.13 70 1011.1
20260509185510 22 178 1.6 8.0 0.03 0.23 0.13 69 1011.2
20260509185013 22 0 0.0 8.0 0.03 0.23 0.13 69 1011.2
20260509184536 22 219 0.0 4.8 0.03 0.23 0.13 69 1011.3